STARLINK-35180

Last updated on Thu Oct 02 2025 00:02:05 GMT+0000 (Coordinated Universal Time)

1 65462U 25195E 25274.50002315 .00107364 00000+0 26648-2 0 9999 2 65462 53.1598 280.8380 0001474 63.8120 3.1585 15.39524089 4946

Satellite not in orbit

STARLINK-35180